{"data":{"norad_id":32958,"intl_designator":"2008-026A","name":"FENGYUN 3A","alt_names":[],"object_type":"PAYLOAD","status":"ACTIVE","operator":null,"country":"PRC","launch_date":"2008-05-27","launch_site_code":"TAISC","launch_vehicle":null,"mission":null,"orbit_class":"UNKNOWN","rcs_meters":6.5849,"size_class":null,"mass_kg":null,"dimensions":null,"purposes":["earth_obs"],"wikipedia_slug":null,"has_3d_model":false,"image_url":null,"decayed_at":null,"tle_current":{"epoch":"2026-05-24T20:35:47.107968Z","epoch_age_seconds":98028,"freshness":"FRESH","line1":"1 32958U 08026A   26144.85818412  .00000067  00000+0  52176-4 0  9994","line2":"2 32958  98.6876  86.1291 0008400 188.1295 171.9746 14.19565610932092","mean_motion":14.1956561,"eccentricity":0.00084,"inclination_deg":98.6876,"raan_deg":86.1291,"arg_perigee_deg":188.1295,"mean_anomaly_deg":171.9746,"bstar":5.2176e-5,"rev_number":93209,"period_min":101.43948189897,"perigee_km":820.77007300467,"apogee_km":832.8744045258,"semimajor_km":7204.9592387652,"source":"CELESTRAK","updated_at":"2026-05-25T13:38:11.910997Z"}}}